Location: Gwatt
(46.7204°N, 7.6223°E)
Time: 17:09:36
(UTC+00:00)

NOSS 2-2 (C) - Pass Details

Date: 18 September 2020
Orbit: 468 x 1740 km, 63.3° (Epoch: 19 October)

Event Time Altitude Azimuth Distance (km) Brightness Sun altitude
Rises 18:14:42 0° 191° (S) 2,519 6.7 -7.7°
Reaches altitude 10° 18:16:59 10° 179° (S) 1,622 5.6 -8.1°
Maximum altitude 18:19:59 27° 119° (ESE) 936 4.0 -8.6°
Drops below altitude 10° 18:23:12 10° 59° (ENE) 1,737 5.4 -9.1°
Sets 18:25:43 0° 47° (NE) 2,742 6.5 -9.5°
